• Em Portugal
  • Lista de países
  • Para 7 dias
  • Temperatura da água
  • Mapas de satélite
  • Mapa do tempo
  • Widgets de tempo
  • user-avatar
    Iniciar Sessão

    Previsão horária em Corcha

    Hoje, 15 Julho, Domingo

    Tempo Temperatura Precipitação Vento Pressão Humidade
    00:00 +16°C° 0 mm 1 m/s 667 mmHg 78%
    01:00 +16°C° 0 mm 2 m/s 667 mmHg 74%
    02:00 +16°C° 0 mm 2 m/s 667 mmHg 74%
    03:00 +15°C° 0 mm 2 m/s 667 mmHg 73%
    04:00 +15°C° 0 mm 2 m/s 667 mmHg 73%
    05:00 +18°C° 0 mm 1 m/s 667 mmHg 68%
    06:00 +20°C° 0 mm 1 m/s 667 mmHg 64%
    07:00 +22°C° 0 mm 1 m/s 668 mmHg 58%
    08:00 +23°C° 0 mm 1 m/s 668 mmHg 54%
    09:00 +25°C° 0 mm 1 m/s 669 mmHg 49%
    10:00 +26°C° 0 mm 1 m/s 669 mmHg 44%
    11:00 +27°C° 0 mm 1 m/s 669 mmHg 42%
    12:00 +28°C° 0 mm 2 m/s 669 mmHg 39%
    13:00 +28°C° 0 mm 2 m/s 669 mmHg 37%
    14:00 +28°C° 0 mm 3 m/s 669 mmHg 38%
    15:00 +28°C° 0 mm 3 m/s 668 mmHg 40%
    16:00 +27°C° 0 mm 3 m/s 668 mmHg 42%
    17:00 +25°C° 0 mm 3 m/s 668 mmHg 48%
    18:00 +23°C° 0 mm 2 m/s 667 mmHg 55%
    19:00 +20°C° 0 mm 2 m/s 666 mmHg 62%
    20:00 +20°C° 0 mm 1 m/s 666 mmHg 62%
    21:00 +19°C° 0 mm 1 m/s 667 mmHg 63%
    22:00 +18°C° 0 mm 1 m/s 667 mmHg 63%
    23:00 +18°C° 0 mm 1 m/s 667 mmHg 61%

    Amanhã, 16 Julho, Segunda-feira

    Tempo Temperatura Precipitação Vento Pressão Humidade
    00:00 +18°C° 0 mm 1 m/s 667 mmHg 59%
    01:00 +18°C° 0 mm 1 m/s 667 mmHg 57%
    02:00 +16°C° 0 mm 1 m/s 666 mmHg 57%
    03:00 +16°C° 0 mm 1 m/s 666 mmHg 56%
    04:00 +16°C° 0 mm 1 m/s 666 mmHg 56%
    05:00 +19°C° 0 mm 1 m/s 667 mmHg 55%
    06:00 +20°C° 0 mm 1 m/s 667 mmHg 54%
    07:00 +22°C° 0 mm 1 m/s 668 mmHg 53%
    08:00 +24°C° 0 mm 2 m/s 668 mmHg 49%
    09:00 +25°C° 0 mm 2 m/s 668 mmHg 45%
    10:00 +27°C° 0 mm 3 m/s 668 mmHg 41%
    11:00 +27°C° 0 mm 3 m/s 669 mmHg 40%
    12:00 +28°C° 0 mm 4 m/s 669 mmHg 39%
    13:00 +28°C° 0 mm 5 m/s 669 mmHg 39%
    14:00 +28°C° 0 mm 5 m/s 668 mmHg 40%
    15:00 +27°C° 0 mm 5 m/s 668 mmHg 42%
    16:00 +27°C° 0 mm 4 m/s 668 mmHg 43%
    17:00 +25°C° 0 mm 3 m/s 667 mmHg 50%
    18:00 +23°C° 0 mm 2 m/s 667 mmHg 57%
    19:00 +21°C° 0 mm 1 m/s 666 mmHg 64%
    20:00 +20°C° 0 mm 1 m/s 666 mmHg 65%
    21:00 +19°C° 0 mm 1 m/s 666 mmHg 66%
    22:00 +18°C° 0 mm 1 m/s 666 mmHg 67%
    23:00 +18°C° 0 mm 1 m/s 666 mmHg 65%

    Depois de amanhã, 17 Julho, Terça-feira

    Tempo Temperatura Precipitação Vento Pressão Humidade
    00:00 +18°C° 0 mm 1 m/s 666 mmHg 64%
    01:00 +18°C° 0 mm 1 m/s 666 mmHg 62%
    02:00 +18°C° 0 mm 1 m/s 665 mmHg 60%
    03:00 +18°C° 0 mm 1 m/s 665 mmHg 59%
    04:00 +16°C° 0 mm 1 m/s 665 mmHg 58%
    05:00 +18°C° 0 mm 2 m/s 665 mmHg 56%
    06:00 +20°C° 0 mm 2 m/s 665 mmHg 55%
    07:00 +21°C° 0 mm 2 m/s 665 mmHg 53%
    08:00 +24°C° 0 mm 2 m/s 665 mmHg 50%
    09:00 +25°C° 0 mm 3 m/s 665 mmHg 46%
    10:00 +27°C° 0 mm 3 m/s 666 mmHg 43%
    11:00 +27°C° 0 mm 3 m/s 665 mmHg 43%
    12:00 +27°C° 0 mm 3 m/s 665 mmHg 43%
    13:00 +28°C° 0 mm 4 m/s 665 mmHg 44%
    14:00 +27°C° 0,3 mm 4 m/s 664 mmHg 48%
    15:00 +26°C° 0,3 mm 4 m/s 664 mmHg 52%
    16:00 +25°C° 0,3 mm 4 m/s 664 mmHg 56%
    17:00 +22°C° 0,3 mm 3 m/s 664 mmHg 64%
    18:00 +21°C° 0,3 mm 3 m/s 663 mmHg 72%
    19:00 +19°C° 0,3 mm 2 m/s 663 mmHg 79%
    20:00 +18°C° 0 mm 2 m/s 663 mmHg 82%
    21:00 +17°C° 0 mm 2 m/s 663 mmHg 85%
    22:00 +16°C° 0 mm 1 m/s 664 mmHg 88%
    23:00 +16°C° 0 mm 1 m/s 663 mmHg 88%

    18 Julho, Quarta-feira

    Tempo Temperatura Precipitação Vento Pressão Humidade
    00:00 +16°C° 0 mm 1 m/s 663 mmHg 88%
    01:00 +15°C° 0 mm 1 m/s 663 mmHg 89%
    02:00 +15°C° 0 mm 1 m/s 663 mmHg 89%
    03:00 +15°C° 0 mm 1 m/s 663 mmHg 89%
    04:00 +14°C° 0 mm 1 m/s 663 mmHg 89%
    05:00 +16°C° 0 mm 1 m/s 663 mmHg 83%
    06:00 +17°C° 0 mm 2 m/s 664 mmHg 77%
    07:00 +19°C° 0 mm 2 m/s 664 mmHg 72%
    08:00 +20°C° 0 mm 2 m/s 665 mmHg 65%
    09:00 +23°C° 0 mm 2 m/s 665 mmHg 59%
    10:00 +24°C° 0 mm 2 m/s 666 mmHg 52%
    11:00 +25°C° 0,1 mm 2 m/s 666 mmHg 51%
    12:00 +25°C° 0,1 mm 3 m/s 666 mmHg 50%
    13:00 +26°C° 0,1 mm 3 m/s 665 mmHg 49%
    14:00 +25°C° 0,2 mm 3 m/s 665 mmHg 51%
    15:00 +25°C° 0,2 mm 3 m/s 665 mmHg 53%
    16:00 +25°C° 0,2 mm 4 m/s 665 mmHg 55%
    17:00 +22°C° 0,1 mm 3 m/s 665 mmHg 62%
    18:00 +20°C° 0,1 mm 3 m/s 665 mmHg 69%
    19:00 +19°C° 0,1 mm 2 m/s 664 mmHg 75%
    20:00 +18°C° 0 mm 2 m/s 664 mmHg 78%
    21:00 +17°C° 0 mm 2 m/s 665 mmHg 81%
    22:00 +16°C° 0 mm 1 m/s 665 mmHg 83%
    23:00 +15°C° 0 mm 1 m/s 664 mmHg 83%

    19 Julho, Quinta-feira

    Tempo Temperatura Precipitação Vento Pressão Humidade
    00:00 +15°C° 0 mm 1 m/s 664 mmHg 82%
    01:00 +15°C° 0 mm 1 m/s 664 mmHg 82%
    02:00 +15°C° 0 mm 1 m/s 664 mmHg 81%
    03:00 +14°C° 0 mm 1 m/s 664 mmHg 81%
    04:00 +14°C° 0 mm 1 m/s 664 mmHg 80%
    05:00 +16°C° 0 mm 1 m/s 664 mmHg 74%
    06:00 +18°C° 0 mm 2 m/s 665 mmHg 67%
    07:00 +19°C° 0 mm 2 m/s 665 mmHg 61%
    08:00 +21°C° 0 mm 2 m/s 666 mmHg 55%
    09:00 +22°C° 0 mm 3 m/s 666 mmHg 49%
    10:00 +25°C° 0 mm 4 m/s 667 mmHg 42%
    11:00 +25°C° 0 mm 4 m/s 667 mmHg 42%
    12:00 +25°C° 0 mm 4 m/s 667 mmHg 42%
    13:00 +26°C° 0 mm 5 m/s 667 mmHg 42%
    14:00 +25°C° 0 mm 4 m/s 667 mmHg 44%
    15:00 +25°C° 0 mm 4 m/s 666 mmHg 46%
    16:00 +25°C° 0 mm 4 m/s 666 mmHg 47%
    17:00 +22°C° 0 mm 3 m/s 666 mmHg 54%
    18:00 +20°C° 0 mm 2 m/s 666 mmHg 61%
    19:00 +18°C° 0 mm 2 m/s 666 mmHg 68%
    20:00 +17°C° 0 mm 2 m/s 666 mmHg 71%
    21:00 +17°C° 0 mm 2 m/s 666 mmHg 74%
    22:00 +16°C° 0 mm 1 m/s 666 mmHg 76%
    23:00 +16°C° 0 mm 1 m/s 665 mmHg 77%

    20 Julho, Sexta-feira

    Tempo Temperatura Precipitação Vento Pressão Humidade
    00:00 +15°C° 0 mm 1 m/s 665 mmHg 79%
    01:00 +15°C° 0 mm 1 m/s 665 mmHg 80%
    02:00 +15°C° 0 mm 1 m/s 665 mmHg 80%
    03:00 +15°C° 0 mm 1 m/s 665 mmHg 81%
    04:00 +15°C° 0 mm 1 m/s 665 mmHg 82%
    05:00 +16°C° 0 mm 1 m/s 666 mmHg 77%
    06:00 +19°C° 0 mm 1 m/s 666 mmHg 72%
    07:00 +21°C° 0 mm 1 m/s 667 mmHg 66%
    08:00 +22°C° 0 mm 1 m/s 667 mmHg 61%
    09:00 +24°C° 0 mm 1 m/s 667 mmHg 56%
    10:00 +26°C° 0 mm 1 m/s 668 mmHg 50%
    11:00 +26°C° 0,1 mm 2 m/s 668 mmHg 49%
    12:00 +27°C° 0,1 mm 2 m/s 668 mmHg 48%
    13:00 +27°C° 0,1 mm 2 m/s 668 mmHg 47%
    14:00 +27°C° 0,2 mm 3 m/s 668 mmHg 50%
    15:00 +26°C° 0,2 mm 3 m/s 668 mmHg 52%
    16:00 +26°C° 0,2 mm 3 m/s 668 mmHg 54%
    17:00 +24°C° 0,1 mm 2 m/s 667 mmHg 60%
    18:00 +23°C° 0,1 mm 2 m/s 667 mmHg 66%
    19:00 +21°C° 0,1 mm 1 m/s 667 mmHg 72%
    20:00 +20°C° 0 mm 1 m/s 667 mmHg 74%
    21:00 +19°C° 0 mm 1 m/s 667 mmHg 77%
    22:00 +18°C° 0 mm 1 m/s 667 mmHg 79%
    23:00 +18°C° 0 mm 1 m/s 667 mmHg 80%
    Mostrar mais